Location: Le Castellard
(44.1862°N, 6.1301°E)
Time: 17:36:34
(UTC+00:00)

Cosmos 1758 Rocket - Pass Details

Date: 18 January 2020
Orbit: 603 x 635 km, 82.5° (Epoch: 19 February)

Event Time Altitude Azimuth Distance (km) Brightness Sun altitude
Exits shadow 05:33:37 - 349° (NNW) 2,529 6.5 -16.3°
Reaches altitude 10° 05:34:59 10° 347° (NNW) 1,974 5.9 -16.1°
Maximum altitude 05:39:20 72° 264° (W) 650 3.4 -15.3°
Drops below altitude 10° 05:43:41 10° 180° (S) 1,977 6.3 -14.6°
Sets 05:45:55 0° 179° (S) 2,884 7.2 -14.2°
